Texarkana, AR

1:50 PM CST on November 21, 2017 (GMT -0600)
Texarkana Regional-Webb

Weather History for KTXK - June, 2013

Change the Weather History Date:

Monday, June 17, 2013

  Actual Average Record
Temperature  
Mean Temperature 77 °F 79 °F  
Max Temperature 85 °F 89 °F 103 °F (1918)
Min Temperature 69 °F 69 °F 52 °F (1917)
Degree Days  
Heating Degree Days 0 0  
Month to date heating degree days 0 0  
Since 1 June heating degree days 0 0  
Since 1 July heating degree days 2550 2616  
Cooling Degree Days 12 14  
Month to date cooling degree days 217 211  
Year to date cooling degree days 515 531  
Since 1 June cooling degree days 217 211  
Growing Degree Days 26 (Base 50)    
Moisture  
Dew Point 70 °F    
Average Humidity 79    
Maximum Humidity 97    
Minimum Humidity 61    
Precipitation  
Precipitation 0.17 in 0.16 in 0.95 in (1968)
Month to date precipitation 2.83 2.45  
Year to date precipitation 16.41 23.07  
Snow  
Snow 0.00 in - - ()
Month to date snowfall 0.0  
Since 1 June snowfall 0.0  
Since 1 July snowfall 2.1  
Snow Depth 0.00 in    
Sea Level Pressure  
Sea Level Pressure 29.94 in    
Wind  
Wind Speed 6 mph (SW)    
Max Wind Speed 22 mph    
Max Gust Speed 31 mph    
Visibility 9 miles    
Events Rain , Thunderstorm    
T = Trace of Precipitation, MM = Missing Value Source: NWS Daily Summary

Daily Weather History Graph

Daily Weather History Graph

Search for Another Location

Airport or City:

Trip Planner

Search our weather history database for the weather conditions in past years. The results will help you decide how hot, cold, wet, or windy it might be!

Date:

Astronomy

Jun. 17, 2013 Rise Set
Actual Time 6:05 AM CDT 8:28 PM CDT
Civil Twilight 5:37 AM CDT 8:56 PM CDT
Nautical Twilight 5:01 AM CDT 9:32 PM CDT
Astronomical Twilight 4:22 AM CDT 10:11 PM CDT
Moon 2:21 PM CDT (6/17) 1:25 AM CDT (6/17)
Length of Visible Light 15h 19m
Length of Day
14h 22m
First Quarter, 60% of the Moon is Illuminated
Jun 17
First Quarter
Jun 23
Full
Jun 29
Last Quarter
Jul 8
New
Jul 15
First Quarter

Hourly Weather History & Observations

Time (CDT) Temp. Heat Index Dew Point Humidity Pressure Visibility Wind Dir Wind Speed Gust Speed Precip Events Conditions
12:07 AM 77.0 °F - 71.6 °F 83% 30.02 in 10.0 mi North 17.3 mph 24.2 mph N/A   Mostly Cloudy
12:37 AM 75.2 °F - 69.8 °F 83% 29.99 in 10.0 mi NNE 3.5 mph - N/A   Scattered Clouds
12:53 AM 75.0 °F - 70.0 °F 84% 29.98 in 10.0 mi Calm Calm - N/A   Clear
1:53 AM 75.0 °F - 71.1 °F 87% 29.92 in 10.0 mi SSE 10.4 mph - N/A   Clear
2:53 AM 77.0 °F - 73.0 °F 88% 29.89 in 10.0 mi South 5.8 mph - 0.00 in Rain Light Rain
3:53 AM 73.9 °F - 72.0 °F 93% 29.90 in 9.0 mi Calm Calm - 0.00 in   Clear
4:53 AM 73.0 °F - 72.0 °F 96% 29.91 in 7.0 mi Calm Calm - N/A   Clear
5:53 AM 73.0 °F - 72.0 °F 96% 29.93 in 6.0 mi ESE 4.6 mph - N/A   Clear
6:53 AM 73.9 °F - 72.0 °F 93% 29.91 in 4.0 mi SE 4.6 mph - N/A   Clear
7:53 AM 79.0 °F - 73.0 °F 82% 29.92 in 9.0 mi SW 8.1 mph - N/A   Clear
8:53 AM 80.1 °F 84.2 °F 73.0 °F 79% 29.92 in 10.0 mi SW 13.8 mph - N/A   Clear
9:48 AM 75.2 °F - 68.0 °F 78% 29.99 in 10.0 mi WNW 17.3 mph 31.1 mph N/A   Overcast
9:53 AM 75.0 °F - 66.9 °F 76% 29.98 in 10.0 mi NW 17.3 mph 27.6 mph N/A   Mostly Cloudy
10:00 AM 73.4 °F - 66.2 °F 78% 29.99 in 10.0 mi NNW 12.7 mph 28.8 mph N/A   Overcast
10:10 AM 71.6 °F - 66.2 °F 83% 30.00 in 10.0 mi NNW 13.8 mph 23.0 mph N/A Thunderstorm Overcast
10:27 AM 69.8 °F - 68.0 °F 94% 30.00 in 2.5 mi NNW 10.4 mph 20.7 mph 0.03 in Rain Rain
10:41 AM 69.8 °F - 68.0 °F 94% 30.00 in 5.0 mi NNW 8.1 mph - 0.06 in Rain , Thunderstorm Light Rain
10:53 AM 70.0 °F - 68.0 °F 93% 29.99 in 6.0 mi NNW 5.8 mph - 0.06 in Rain Light Rain
11:05 AM 69.8 °F - 66.2 °F 88% 30.00 in 1.8 mi Calm Calm - 0.04 in Rain Heavy Rain
11:13 AM 69.8 °F - 68.0 °F 94% 29.98 in 3.0 mi East 3.5 mph - 0.06 in Rain Rain
11:53 AM 70.0 °F - 68.0 °F 93% 29.95 in 10.0 mi Calm Calm - 0.11 in Rain Light Rain
12:17 PM 71.6 °F - 69.8 °F 94% 29.96 in 9.0 mi SSE 5.8 mph - 0.00 in Rain Light Rain
12:43 PM 71.6 °F - 69.8 °F 94% 29.95 in 10.0 mi South 4.6 mph - 0.00 in   Mostly Cloudy
12:53 PM 72.0 °F - 70.0 °F 93% 29.94 in 10.0 mi SSW 6.9 mph - 0.00 in   Mostly Cloudy
1:53 PM 75.9 °F - 71.1 °F 85% 29.91 in 10.0 mi SSW 9.2 mph - N/A   Scattered Clouds
2:53 PM 80.1 °F 83.6 °F 71.1 °F 74% 29.89 in 10.0 mi SSW 10.4 mph - N/A   Clear
3:53 PM 82.9 °F 87.5 °F 71.1 °F 67% 29.89 in 10.0 mi SW 9.2 mph - N/A   Clear
4:53 PM 84.9 °F 89.4 °F 70.0 °F 61% 29.89 in 10.0 mi WSW 9.2 mph - N/A   Clear
5:53 PM 84.0 °F 88.4 °F 70.0 °F 63% 29.89 in 10.0 mi WSW 10.4 mph - N/A   Clear
6:53 PM 82.9 °F 87.0 °F 70.0 °F 65% 29.89 in 10.0 mi WSW 6.9 mph - N/A   Overcast
7:53 PM 82.9 °F 86.5 °F 69.1 °F 63% 29.88 in 10.0 mi WSW 8.1 mph - N/A   Mostly Cloudy
8:00 PM 82.4 °F 86.3 °F 69.8 °F 66% 29.89 in 10.0 mi SW 5.8 mph - N/A   Mostly Cloudy
8:53 PM 78.1 °F - 72.0 °F 81% 29.88 in 10.0 mi SSW 4.6 mph - N/A   Unknown
9:53 PM 75.9 °F - 72.0 °F 87% 29.89 in 10.0 mi Calm Calm - N/A   Partly Cloudy
10:53 PM 75.9 °F - 72.0 °F 87% 29.90 in 10.0 mi Calm Calm - N/A   Mostly Cloudy
11:53 PM 75.0 °F - 72.0 °F 90% 29.90 in 10.0 mi Calm Calm - N/A   Partly Cloudy